Location: Holyhead Bay
(53.3667°N, 4.6667°W)
Time: 06:10:26
(UTC+00:00)

H-2A R/B - Pass Details

Date: 24 November 2020
Orbit: 529 x 651 km, 98.3° (Epoch: 23 January)

Event Time Altitude Azimuth Distance (km) Brightness Sun altitude
Rises 16:46:01 0° 152° (SSE) 2,905 6.0 -5.4°
Reaches altitude 10° 16:48:15 10° 149° (SSE) 1,986 5.1 -5.7°
Maximum altitude 16:52:30 60° 70° (ENE) 698 2.6 -6.3°
Drops below altitude 10° 16:56:37 10° 351° (N) 1,928 4.9 -6.8°
Sets 16:58:46 0° 348° (NNW) 2,812 5.8 -7.1°
